sat.trackr.live / text

‹ back to catalog

STARLINK-2303

NORAD 47981 · 2021-024E

PAYLOAD ACTIVE UNKNOWN

§ Identity

Operator
Country
US
Launch date
2021-03-24
Launch site
AFETR
Launch vehicle
Mass (kg)
RCS (m²)

Purposes: comms

External: N2YO · Heavens-Above · Gunter

§ Orbital elements

Epoch: 2026-05-24T22:01:32.147616Z

Period
94.01 min
Inclination
53.1597°
Eccentricity
0.0001115
Mean motion
15.31698637 rev/d
Perigee alt
470.0 km
Apogee alt
471.5 km
Semi-major
6,848.9 km
B*
-5.4924e-5
RAAN
337.9128°
Arg perigee
85.3779°
Mean anomaly
274.7349°
Rev number
28,630

§ Raw data

STARLINK-23031 47981U 21024E   26144.91773319 -.00002069  00000+0 -54924-4 0  99912 47981  53.1597 337.9128 0001115  85.3779 274.7349 15.31698637286305

JSON: /api/v1/satellites/47981 · /tle

For live sub-satellite position, see the globe view (requires WebGL).

§ Visibility from observer

Set your observer location to see the next 7 days of passes ≥ 10°. The values pass through the URL so the page stays shareable.

No JS? Fill the form by hand. The geolocation button needs JavaScript.